Date String (YYYY-MM-DD hh:mm:ss) UTC,Instrument flags,absolute air pressure of the measurement (hPa),sample flow rate (lpm),inlet stack bypass flow (lpm),air temperature of the measurement (°C),ambient temperature measured by the external sensor (°C),aerosol sample conditioner tube jacket temperature (°C),OPC LED temperature (°C),internal box temperature (°C),relative humidity of the measurement (%),span deviation,mass concentration of particles derived from Lorenz-Mie calculation of OPC scattering (μg/m³),mass concentration of particles derived from Lorenz-Mie calculation of OPC scattering (μg/m³),mass concentration of particles derived from Lorenz-Mie calculation of OPC scattering (μg/m³)
DateTimeUTC,F1_M11,P_M11,Q1_M11,Q2_M11,T1_M11,T2_M11,T3_M11,T4_M11,T5_M11,U1_M11,ZSPAN_M11,X0_M11,X2_M11,X1_M11
2023-06-17 21:00:00,SystemResetWarning,0828.5,4.99,000.00,029.7,027.5,000.0,038.2,031.2,17.3,0000.0,0003.64,0001.86,0001.48
2023-06-17 21:01:00,SystemResetWarning,0828.6,4.99,000.00,029.7,027.7,000.0,038.2,031.2,17.2,0000.0,0003.59,0001.85,0001.49
2023-06-17 21:02:00,SystemResetWarning,0828.6,5.00,000.00,029.7,027.9,000.0,038.2,031.3,17.6,0000.0,0003.15,0001.85,0001.50
2023-06-17 21:03:00,SystemResetWarning,0828.5,5.00,000.00,029.7,028.0,000.0,038.2,031.3,17.2,0000.0,0002.74,0001.83,0001.50
2023-06-17 21:04:00,SystemResetWarning,0828.5,5.00,000.00,029.7,028.1,000.0,038.2,031.4,17.3,0000.0,0002.62,0001.80,0001.50
2023-06-17 21:05:00,SystemResetWarning,0828.6,5.00,000.00,029.8,028.2,000.0,038.2,031.4,16.9,0000.0,0002.63,0001.79,0001.51
2023-06-17 21:06:00,SystemResetWarning,0828.6,4.99,000.00,029.8,028.3,000.0,038.3,031.4,16.8,0000.0,0002.66,0001.79,0001.52
2023-06-17 21:07:00,SystemResetWarning,0828.6,4.99,000.00,029.8,028.4,000.0,038.3,031.4,18.4,0000.0,0002.71,0001.80,0001.52
2023-06-17 21:08:00,SystemResetWarning,0828.6,4.99,000.00,029.9,028.4,000.0,038.3,031.5,17.8,0000.0,0002.67,0001.79,0001.51
2023-06-17 21:09:00,SystemResetWarning,0828.6,5.00,000.00,029.9,028.5,000.0,038.3,031.5,18.1,0000.0,0002.55,0001.78,0001.51
2023-06-17 21:10:00,SystemResetWarning,0828.6,5.00,000.00,029.9,028.4,000.0,038.3,031.6,18.2,0000.0,0002.58,0001.79,0001.51
2023-06-17 21:11:00,SystemResetWarning,0828.6,5.00,000.00,029.9,026.3,000.0,038.3,031.4,18.0,0000.0,0003.35,0001.81,0001.51
2023-06-17 21:12:00,SystemResetWarning,0828.6,5.01,000.00,029.9,025.2,000.0,038.2,031.4,17.8,0000.0,0003.44,0001.81,0001.50
2023-06-17 21:13:00,SystemResetWarning,0828.6,5.01,000.00,029.8,025.4,000.0,038.2,031.1,18.0,0000.0,0003.39,0001.78,0001.51
2023-06-17 21:14:00,SystemResetWarning,0828.5,4.99,000.00,029.7,025.7,000.0,038.2,031.0,19.8,0000.0,0003.47,0001.82,0001.52
2023-06-17 21:15:00,SystemResetWarning,0828.5,5.00,000.00,029.7,026.2,000.0,038.2,031.0,19.2,0000.0,0003.48,0001.84,0001.53
2023-06-17 21:16:00,SystemResetWarning,0828.5,5.00,000.00,029.7,026.6,000.0,038.2,031.0,19.3,0000.0,0003.54,0001.84,0001.53
2023-06-17 21:17:00,SystemResetWarning,0828.6,5.00,000.00,029.7,026.9,000.0,038.2,031.1,18.5,0000.0,0003.66,0001.86,0001.54
2023-06-17 21:18:00,SystemResetWarning,0828.5,5.00,000.00,029.7,027.2,000.0,038.2,031.1,18.3,0000.0,0003.74,0001.90,0001.55
2023-06-17 21:19:00,SystemResetWarning,0828.6,4.99,000.00,029.7,027.5,000.0,038.2,031.2,18.0,0000.0,0003.75,0001.92,0001.57
2023-06-17 21:20:00,SystemResetWarning,0828.6,5.00,000.00,029.7,027.7,000.0,038.2,031.2,18.9,0000.0,0003.85,0001.94,0001.59
2023-06-17 21:21:00,SystemResetWarning,0828.6,5.00,000.00,029.7,027.9,000.0,038.2,031.3,18.4,0000.0,0004.07,0001.94,0001.60
2023-06-17 21:22:00,SystemResetWarning,0828.6,5.00,000.00,029.7,028.0,000.0,038.2,031.3,17.8,0000.0,0003.59,0001.98,0001.62
2023-06-17 21:23:00,SystemResetWarning,0828.6,5.00,000.00,029.8,028.1,000.0,038.2,031.3,18.6,0000.0,0003.50,0002.02,0001.64
2023-06-17 21:24:00,SystemResetWarning,0828.6,5.00,000.00,029.8,028.3,000.0,038.3,031.4,19.5,0000.0,0003.56,0002.03,0001.65
2023-06-17 21:25:00,SystemResetWarning,0828.6,5.00,000.00,029.8,028.4,000.0,038.3,031.4,19.6,0000.0,0003.50,0002.01,0001.65
2023-06-17 21:26:00,SystemResetWarning,0828.6,5.00,000.00,029.9,028.4,000.0,038.3,031.5,19.1,0000.0,0003.51,0001.97,0001.65
2023-06-17 21:27:00,SystemResetWarning,0828.6,5.00,000.00,029.9,028.5,000.0,038.3,031.5,19.5,0000.0,0003.76,0001.99,0001.65
2023-06-17 21:28:00,SystemResetWarning,0828.6,4.99,000.00,029.9,027.7,000.0,038.3,031.5,19.2,0000.0,0003.69,0002.02,0001.65
2023-06-17 21:29:00,SystemResetWarning,0828.6,5.01,000.00,029.9,025.6,000.0,038.2,031.4,18.8,0000.0,0004.16,0002.02,0001.64
2023-06-17 21:30:00,SystemResetWarning,0828.6,5.01,000.00,029.9,025.3,000.0,038.2,031.3,18.7,0000.0,0004.86,0002.03,0001.64
2023-06-17 21:31:00,SystemResetWarning,0828.5,5.01,000.00,029.7,025.6,000.0,038.2,031.0,18.7,0000.0,0004.86,0002.05,0001.63
2023-06-17 21:32:00,SystemResetWarning,0828.5,4.99,000.00,029.7,026.0,000.0,038.2,031.0,18.8,0000.0,0004.64,0002.06,0001.62
2023-06-17 21:33:00,SystemResetWarning,0828.5,5.00,000.00,029.7,026.4,000.0,038.2,031.0,19.6,0000.0,0005.50,0002.05,0001.62
2023-06-17 21:34:00,SystemResetWarning,0828.5,5.00,000.00,029.7,026.8,000.0,038.2,031.1,19.0,0000.0,0006.08,0002.00,0001.61
2023-06-17 21:35:00,SystemResetWarning,0828.4,5.00,000.00,029.7,027.1,000.0,038.2,031.2,19.5,0000.0,0006.02,0002.01,0001.62
2023-06-17 21:36:00,SystemResetWarning,0828.4,4.99,000.00,029.7,027.4,000.0,038.2,031.2,19.0,0000.0,0006.05,0002.03,0001.63
2023-06-17 21:37:00,SystemResetWarning,0828.4,5.00,000.00,029.7,027.6,000.0,038.2,031.2,19.3,0000.0,0005.98,0002.03,0001.63
2023-06-17 21:38:00,SystemResetWarning,0828.4,5.00,000.00,029.7,027.9,000.0,038.2,031.3,18.8,0000.0,0005.86,0002.03,0001.63
2023-06-17 21:39:00,SystemResetWarning,0828.4,5.01,000.00,029.7,028.0,000.0,038.2,031.4,18.4,0000.0,0006.50,0002.04,0001.63
2023-06-17 21:40:00,SystemResetWarning,0828.4,5.00,000.00,029.8,028.2,000.0,038.3,031.4,18.4,0000.0,0006.17,0002.02,0001.63
2023-06-17 21:41:00,SystemResetWarning,0828.4,5.01,000.00,029.8,028.3,000.0,038.3,031.5,18.6,0000.0,0005.20,0001.99,0001.63
2023-06-17 21:42:00,SystemResetWarning,0828.4,5.00,000.00,029.8,028.4,000.0,038.3,031.5,18.8,0000.0,0005.07,0001.92,0001.63
2023-06-17 21:43:00,SystemResetWarning,0828.4,5.00,000.00,029.9,028.5,000.0,038.3,031.5,19.5,0000.0,0005.17,0001.93,0001.64
2023-06-17 21:44:00,SystemResetWarning,0828.4,4.99,000.00,029.9,028.5,000.0,038.3,031.5,19.4,0000.0,0004.77,0001.89,0001.64
2023-06-17 21:45:00,SystemResetWarning,0828.4,4.99,000.00,029.9,027.9,000.0,038.3,031.6,18.6,0000.0,0003.45,0001.91,0001.65
2023-06-17 21:46:00,SystemResetWarning,0828.5,5.00,000.00,029.9,025.7,000.0,038.3,031.5,18.4,0000.0,0003.52,0001.93,0001.64
2023-06-17 21:47:00,SystemResetWarning,0828.6,5.01,000.00,029.9,025.3,000.0,038.2,031.4,18.7,0000.0,0003.55,0001.93,0001.64
2023-06-17 21:48:00,SystemResetWarning,0828.5,5.01,000.00,029.8,025.6,000.0,038.2,031.1,18.8,0000.0,0003.62,0001.96,0001.65
2023-06-17 21:49:00,SystemResetWarning,0828.5,5.00,000.00,029.7,026.0,000.0,038.2,031.0,18.7,0000.0,0003.73,0001.99,0001.65
2023-06-17 21:50:00,SystemResetWarning,0828.5,5.00,000.00,029.7,026.4,000.0,038.2,031.1,19.3,0000.0,0003.09,0001.95,0001.65
2023-06-17 21:51:00,SystemResetWarning,0828.5,5.00,000.00,029.7,026.8,000.0,038.2,031.1,19.7,0000.0,0002.80,0001.93,0001.65
2023-06-17 21:52:00,SystemResetWarning,0828.5,4.99,000.00,029.7,027.1,000.0,038.2,031.2,18.9,0000.0,0002.84,0001.95,0001.65
2023-06-17 21:53:00,SystemResetWarning,0828.5,5.00,000.00,029.7,027.4,000.0,038.2,031.2,21.1,0000.0,0002.84,0001.94,0001.64
2023-06-17 21:54:00,SystemResetWarning,0828.4,5.01,000.00,029.7,027.7,000.0,038.2,031.3,20.9,0000.0,0002.80,0001.95,0001.63
2023-06-17 21:55:00,SystemResetWarning,0828.5,5.01,000.00,029.8,027.9,000.0,038.2,031.3,20.0,0000.0,0002.87,0001.98,0001.62
2023-06-17 21:56:00,SystemResetWarning,0828.4,5.00,000.00,029.8,028.0,000.0,038.3,031.4,20.1,0000.0,0002.92,0001.99,0001.61
2023-06-17 21:57:00,SystemResetWarning,0828.5,4.99,000.00,029.8,028.2,000.0,038.3,031.4,20.2,0000.0,0002.90,0001.98,0001.62
2023-06-17 21:58:00,SystemResetWarning,0828.4,4.99,000.00,029.8,028.3,000.0,038.3,031.5,19.6,0000.0,0002.84,0001.97,0001.61
2023-06-17 21:59:00,SystemResetWarning,0828.4,5.00,000.00,029.9,028.4,000.0,038.3,031.5,18.5,0000.0,0002.87,0001.98,0001.61
